Regional Weather Roundup
Issued by NWS State College, PA

Home | Current Version | Previous Version | Text Only | Print | Product List | Glossary Off
Versions: 1 2 3 4 5 6 7 8 9 10 11 12 13 14 15 16 17 18 19 20 21 22 23 24 25 26 27 28 29 30 31 32 33 34 35 36 37 38 39 40 41 42 43 44 45 46 47 48 49 50

904
ASUS41 KCTP 251910
RWRCTP
PHLRWRCTP ALL

REGIONAL WEATHER ROUNDUP
NATIONAL WEATHER SERVICE STATE COLLEGE PA
300 PM EDT MON SEP 25 2017

Note: "fair" indicates few or no clouds below 12,000 feet with no
significant weather and/or obstructions to visibility.

* = STATION THAT DOES NOT REPORT PRECIPITATION /E.G. RAIN...SNOW...ETC/
    THUNDER OR FOG.

PAZ002>004-007>009-013>016-020>023-029>032-252000-
WESTERN PENNSYLVANIA

CITY           SKY/WX    TMP DP  RH WIND       PRES   REMARKS
ERIE           SUNNY     87  69  54 N8        30.05F
MEADVILLE      MOSUNNY   87  63  44 VRB3      30.09F
FRANKLIN*      SUNNY     83  66  56 SE5       30.10F
NEW CASTLE     FAIR      88  63  43 VRB5      30.07F
BEAVER COUNTY  SUNNY     88  61  40 S7        30.07F
BUTLER*        MOSUNNY   86  65  49 SW5       30.08F
PITTSBURGH INT CLOUDY    86  62  44 CALM      30.06F
PITTSBURGH     MOSUNNY   85  62  46 VRB3      30.06F
INDIANA*       MOSUNNY   86  68  54 W5        30.10F
LATROBE        PTSUNNY   84  66  54 W3        30.08F
WASHINGTON CO* MOSUNNY   84  63  48 SE3       30.07F
$$

PAZ004>006-010>012-017>019-024>028-033>037-041-042-045-046-049>053-252000-
CENTRAL PENNSYLVANIA

CITY           SKY/WX    TMP DP  RH WIND       PRES   REMARKS
BRADFORD       MOSUNNY   83  62  49 CALM      30.12F
DUBOIS         SUNNY     83  62  49 SW5       30.10F
CLEARFIELD     PTSUNNY   88  64  44 VRB3      30.08F
JOHNSTOWN      MOSUNNY   84  61  45 SW3       30.12F
ALTOONA        SUNNY     85  67  54 NE3       30.09F
STATE COLLEGE  MOSUNNY   88  66  48 CALM      30.07F
WILLIAMSPORT   SUNNY     89  68  49 SE5       30.02F
SELINSGROVE    SUNNY     88  71  57 CALM      30.03F
FT INDIANTOWN  PTSUNNY   89  68  50 E7        30.03F
CAPITAL CITY   SUNNY     91  66  43 CALM      30.02F
HARRISBURG     MOSUNNY   88  73  61 W5        30.01F HX  95
YORK           SUNNY     88  66  48 NE7       30.02F
$$

PAZ038>040-043-044-047-048-054-055-060>062-067>071-252000-
EASTERN PENNSYLVANIA

CITY           SKY/WX    TMP DP  RH WIND       PRES   REMARKS
SCRANTON       MOSUNNY   91  67  44 CALM      30.05F
MOUNT POCONO   MOSUNNY   83  66  56 E7        30.12F
ALLENTOWN      SUNNY     89  68  49 N3        30.02F
QUAKERTOWN*    CLEAR     90  68  48 NE6       30.04F
READING        MOSUNNY   88  70  55 VRB5      30.01F
LANCASTER      MOSUNNY   89  68  49 SE5       30.02F
COATESVILLE    CLEAR     86  68  54 CALM      30.05F
POTTSTOWN      MOSUNNY   88  68  51 E7        30.03F
BLUE BELL      SUNNY     88  68  51 E7        30.03F
DOYLESTOWN     SUNNY     90  69  50 VRB6      30.01F
WILLOW GROVE   NOT AVBL
NORTH PHILA    SUNNY     91  68  46 E9        30.02F HX  95
PHILADELPHIA   MOSUNNY   90  66  45 VRB5      30.00F
$$




USA.gov is the U.S. government's official web portal to all federal, state and local government web resources and services.